Regional Weather Roundup
Issued by NWS

Home | Current Version | Previous Version | Graphics & Text | Print | Product List | Glossary On
Versions: 1 2 3 4 5 6 7 8 9 10 11 12 13 14 15 16 17 18 19 20 21 22 23 24 25 26 27 28 29 30 31 32 33 34 35 36 37 38 39 40 41 42 43 44 45 46 47 48 49 50
000
ASUS43 KLMK 011010
RWRKY
KENTUCKY REGIONAL WEATHER ROUNDUP
NATIONAL WEATHER SERVICE LOUISVILLE KY
500 AM EST SUN MAR 01 2015

NOTE "FAIR" INDICATES FEW OR NO CLOUDS BELOW 12,000 FEET
WITH NO SIGNIFICANT WEATHER AND/OR OBSTRUCTIONS TO VISIBILITY.

KYZ001>023-026-027-061>063-070>075-011100-
WESTERN AND SOUTH CENTRAL KENTUCKY

CITY           SKY/WX    TMP DP  RH WIND       PRES   REMARKS
PADUCAH        FRZ RAIN  33  25  72 NE5       30.36R WCI  29
HENDERSON      CLOUDY    32  23  69 E6        30.38F WCI  26
OWENSBORO      MIX PCPN  33  23  67 NE6       30.40R WCI  27
HOPKINSVILLE   CLOUDY    35  26  70 E5        30.36F WCI  31
BOWLING GREEN  CLOUDY    37  26  64 CALM      30.38S
GLASGOW        DRIZZLE   36  28  74 CALM      30.38R
$$

KYZ024-025-028>034-038-045-046-053-011100-
NORTH CENTRAL KENTUCKY

CITY           SKY/WX    TMP DP  RH WIND       PRES   REMARKS
LOUISVILLE/SDF CLOUDY    31  25  78 NW5       30.41R WCI  26
LOUISVILLE/LOU CLOUDY    31  25  78 N3        30.41F
FORT KNOX      CLOUDY    31  24  77 NE3       30.37R
$$

KYZ035>037-039>044-047>052-055>060-089>105-011100-
NORTHEAST KENTUCKY

CITY           SKY/WX    TMP DP  RH WIND       PRES   REMARKS
LEXINGTON      CLOUDY    33  22  63 SE7       30.38R WCI  27
COVINGTON      LGT SNOW  27  24  89 S5        30.38S FOG     WCI  22
FRANKFORT        N/A     31  22  69 E3        30.37S
$$

KYZ054-064>069-076>088-106>120-011100-
SOUTHEAST KENTUCKY

CITY           SKY/WX    TMP DP  RH WIND       PRES   REMARKS
JACKSON        CLOUDY    34  20  56 CALM      30.38F
LONDON         CLOUDY    36  24  62 CALM      30.36F
SOMERSET       CLOUDY    36  28  75 CALM      30.42R
MIDDLESBORO    CLOUDY    35  31  85 CALM      30.42R
MONTICELLO     CLOUDY    44  33  65 CALM      30.42R
$$



USA.gov is the U.S. government's official web portal to all federal, state and local government web resources and services.